Flagstaff, AZ

1:57 AM MST on May 28, 2017 (GMT -0700)
Flagstaff Pulliam

Weather History for KFLG - January, 2014

Change the Weather History Date:

Wednesday, January 22, 2014

  Actual Average Record
Temperature  
Mean Temperature 40 °F 30 °F  
Max Temperature 55 °F 43 °F 62 °F (1970)
Min Temperature 25 °F 18 °F -30 °F (1937)
Degree Days  
Heating Degree Days 25 35  
Month to date heating degree days 657 776  
Since 1 July heating degree days 3570 3604  
Cooling Degree Days 0 0  
Month to date cooling degree days 0 0  
Year to date cooling degree days 0 0  
Moisture  
Dew Point 14 °F    
Average Humidity 45    
Maximum Humidity 75    
Minimum Humidity 15    
Precipitation  
Precipitation 0.00 in 0.05 in 1.53 in (1909)
Month to date precipitation 0.00 1.49  
Year to date precipitation 0.00 1.49  
Snow  
Snow 0.00 in 0.70 in 14.90 in (2010)
Month to date snowfall 0.0 16.1  
Since 1 July snowfall 29.9 45.2  
Snow Depth 0.00 in    
Sea Level Pressure  
Sea Level Pressure 30.03 in    
Wind  
Wind Speed 4 mph (WSW)    
Max Wind Speed 20 mph    
Max Gust Speed 23 mph    
Visibility 10 miles    
Events      
T = Trace of Precipitation, MM = Missing Value Source: NWS Daily Summary

Daily Weather History Graph

Daily Weather History Graph

Search for Another Location

Airport or City:

Trip Planner

Search our weather history database for the weather conditions in past years. The results will help you decide how hot, cold, wet, or windy it might be!

Date:

Astronomy

Jan. 22, 2014 Rise Set
Actual Time 7:31 AM MST 5:45 PM MST
Civil Twilight 7:04 AM MST 6:12 PM MST
Nautical Twilight 6:33 AM MST 6:43 PM MST
Astronomical Twilight 6:03 AM MST 7:13 PM MST
Moon No Moon Rise 10:50 AM MST (1/22)
Length of Visible Light 11h 07m
Length of Day
10h 13m
Waning Gibbous, 65% of the Moon is Illuminated
Jan 22
Waning Gibbous
Jan 23
Last Quarter
Jan 30
New
Feb 6
First Quarter
Feb 14
Full

Hourly Weather History & Observations

Time (MST) Temp. Windchill Dew Point Humidity Pressure Visibility Wind Dir Wind Speed Gust Speed Precip Events Conditions
12:57 AM 28.0 °F - 17.1 °F 63% 30.17 in 10.0 mi Calm Calm - N/A   Clear
1:57 AM 27.0 °F - 19.0 °F 72% 30.15 in 10.0 mi Calm Calm - N/A   Clear
2:57 AM 28.0 °F - 17.1 °F 63% 30.13 in 10.0 mi Calm Calm - N/A   Clear
3:57 AM 28.9 °F - 19.9 °F 69% 30.10 in 10.0 mi Calm Calm - N/A   Clear
4:57 AM 30.0 °F - 19.0 °F 64% 30.11 in 10.0 mi Calm Calm - N/A   Clear
5:57 AM 28.9 °F - 19.9 °F 69% 30.14 in 10.0 mi Calm Calm - N/A   Clear
6:57 AM 30.0 °F - 19.9 °F 66% 30.15 in 10.0 mi Calm Calm - N/A   Clear
7:57 AM 30.0 °F - 19.0 °F 64% 30.15 in 10.0 mi Calm Calm - N/A   Clear
8:57 AM 32.0 °F - 21.0 °F 64% 30.13 in 10.0 mi Calm Calm - N/A   Mostly Cloudy
9:57 AM 42.1 °F - 17.1 °F 37% 30.09 in 10.0 mi Calm Calm - N/A   Clear
10:57 AM 45.0 °F 43.5 °F 17.1 °F 33% 30.07 in 10.0 mi WNW 3.5 mph - N/A   Scattered Clouds
11:57 AM 48.0 °F - 16.0 °F 28% 30.02 in 10.0 mi SW 4.6 mph - N/A   Clear
12:57 PM 52.0 °F - 8.1 °F 17% 29.95 in 10.0 mi WSW 11.5 mph - N/A   Clear
1:57 PM 54.0 °F - 6.1 °F 15% 29.91 in 10.0 mi West 13.8 mph - N/A   Clear
2:57 PM 53.1 °F - 8.1 °F 16% 29.89 in 10.0 mi WSW 11.5 mph 20.7 mph N/A   Clear
3:57 PM 52.0 °F - 7.0 °F 16% 29.89 in 10.0 mi WSW 11.5 mph - N/A   Clear
4:57 PM 50.0 °F - 6.1 °F 17% 29.90 in 10.0 mi WSW 10.4 mph - N/A   Clear
5:57 PM 43.0 °F 39.5 °F 8.1 °F 24% 29.94 in 10.0 mi SW 5.8 mph - N/A   Clear
6:57 PM 37.9 °F 33.5 °F 9.0 °F 30% 29.98 in 10.0 mi SW 5.8 mph - N/A   Clear
7:57 PM 32.0 °F - 9.0 °F 38% 29.99 in 10.0 mi Calm Calm - N/A   Clear
8:57 PM 30.9 °F 26.2 °F 10.9 °F 43% 29.99 in 10.0 mi West 4.6 mph - N/A   Clear
9:57 PM 28.0 °F 24.2 °F 10.9 °F 49% 29.95 in 10.0 mi SW 3.5 mph - N/A   Clear
10:57 PM 25.0 °F - 12.0 °F 58% 29.96 in 10.0 mi Calm Calm - N/A   Clear
11:57 PM 25.0 °F 20.7 °F 10.9 °F 55% 29.93 in 10.0 mi SSW 3.5 mph - N/A   Clear